[[{"header":{"parameterUnit":"m.s-1","parameterCategory":1,"la1":30.2991,"la2":30.254,"lo1":-89.0895,"lo2":-89.0444,"dy":0.0017,"dx":0.0017,"nx":28,"ny":28,"refTime":"2023-11-16T09:00:00:Z","depth":0,"parameterNumber":2,"parameterNumberName":"U-component_of_WINDS"},"data":[0,0,0,0,0,0,0,0,0,0,0,0,0,0,0,0,0,0,0,0,0,0,0,0,0,0,0,0,0,0,0,0,0,0,0,0,0,0,0,0,0,0,0,0,0,0,0,0,0,0,0,0,0,0,0,0,0,0,-4.2431,-4.2431,0,-4.2445,-4.2445,-4.2445,-4.2353,-4.235,-4.2348,-4.2345,-4.236,-4.2362,-4.2365,0,0,0,0,0,0,0,0,0,0,0,0,0,-4.2325,-4.2328,-4.2431,-4.2431,-4.2431,-4.2445,-4.2445,-4.2445,-4.2353,-4.235,-4.2347,-4.2344,-4.2359,-4.2362,-4.2365,0,0,0,0,0,0,0,0,0,0,0,0,0,-4.2359,-4.2329,-4.2431,-4.2387,-4.2383,-4.2445,-4.2445,-4.2445,-4.2354,-4.235,-4.2346,-4.2343,-4.2358,-4.2362,-4.2366,-4.247,0,0,-4.2379,-4.238,0,0,0,0,0,0,0,0,-4.2357,-4.2362,-4.2393,-4.239,-4.2386,-4.2393,-4.2413,-4.2453,-4.2355,-4.2365,-4.2345,-4.2341,-4.2374,-4.2376,-4.2388,-4.247,-4.2471,-4.2379,-4.2381,-4.2383,-4.2384,0,0,0,0,0,0,0,-4.2355,-4.2361,-4.2436,-4.2394,-4.2389,-4.2367,-4.2367,-4.242,-4.2391,-4.2364,-4.2357,-4.236,-4.2371,-4.2384,-4.2387,-4.2471,-4.2379,-4.2383,-4.2385,-4.2387,-4.2642,-4.2646,0,0,0,0,0,0,-4.2358,-4.236,-4.2436,-4.2437,-4.2362,-4.2372,-4.2372,-4.2395,-4.239,-4.2386,-4.2364,-4.2356,-4.2379,-4.2382,-4.2387,-4.251,-4.2383,-4.2387,-4.239,-4.2637,-4.2643,-4.2647,0,0,0,0,0,0,-4.2356,-4.2366,-4.2435,-4.2397,-4.2404,-4.2378,-4.2404,-4.2397,-4.241,-4.239,-4.2384,-4.2382,-4.2376,-4.2381,-4.245,-4.2509,-4.2389,-4.2393,-4.2632,-4.2639,-4.2645,-4.2756,0,0,0,0,0,0,-4.2354,-4.2366,-4.2405,-4.2398,-4.2406,-4.2498,-4.2407,-4.24,-4.2417,-4.2407,-4.2406,-4.2402,-4.2373,-4.2445,-4.2455,-4.2513,-4.2396,-4.2627,-4.2635,-4.2643,-4.2747,-4.2766,-4.2781,0,0,0,0,0,-4.235,-4.2435,-4.2407,-4.2417,-4.2454,-4.2502,-4.2506,-4.2471,-4.2422,-4.2462,-4.2449,-4.2402,-4.2501,-4.2452,-4.2463,-4.2524,-4.2623,-4.2633,-4.2642,-4.274,-4.2762,-4.2781,0,0,0,0,0,0,-4.2449,-4.2433,-4.2402,-4.2488,-4.2497,-4.2486,-4.2534,-4.2496,-4.2519,-4.2509,-4.2465,-4.2465,-4.2542,-4.2539,-4.2485,-4.2625,-4.2554,-4.2566,-4.2624,-4.2645,-4.2662,-4.2662,-4.24,0,0,0,0,0,-4.2481,-4.252,-4.2504,-4.2581,-4.2587,-4.2561,-4.258,-4.2552,-4.256,-4.2563,-4.2556,-4.2565,-4.2598,-4.2621,-4.2651,-4.2746,-4.2745,-4.2793,-4.281,-4.2824,-4.2836,-4.2888,-4.2909,-4.2679,-4.2678,-4.2678,0,0,-4.2547,-4.2543,-4.2571,-4.2601,-4.2605,-4.2648,-4.2564,-4.2612,-4.2644,-4.257,-4.2635,-4.263,-4.2638,-4.2721,-4.2757,-4.2721,-4.2899,-4.2836,-4.2848,-4.2852,-4.29,-4.2922,-4.2941,-4.2685,-4.2684,-4.2683,0,0,-4.2689,-4.269,-4.2755,-4.276,-4.2767,-4.2749,-4.2765,-4.276,-4.2754,-4.2819,-4.2765,-4.2802,-4.286,-4.2868,-4.288,-4.3026,-4.2984,-4.3037,-4.3127,-4.3178,-4.3196,-4.3212,-4.3267,-4.3286,-4.3048,-4.3048,-4.3049,0,-4.277,-4.2832,-4.2793,-4.2845,-4.2861,-4.2796,-4.2863,-4.287,-4.2886,-4.2899,-4.2858,-4.2931,-4.2931,-4.3016,-4.3052,-4.3063,-4.308,-4.3038,-4.3197,-4.3213,-4.3227,-4.3278,-4.3298,-4.3055,-4.3054,-4.3054,-4.3053,0,-4.2932,-4.2976,-4.3028,-4.3046,-4.3067,-4.3126,-4.3096,-4.3122,-4.3093,-4.308,-4.3147,-4.3145,-4.3174,-4.3192,-4.3163,-4.3273,-4.3251,-4.3204,-4.3132,-4.3256,-4.3304,-4.3323,-4.3064,-4.3062,-4.306,-4.3058,0,0,-4.3138,-4.3134,-4.3154,-4.3162,-4.3166,-4.3199,-4.3255,-4.3284,-4.3308,-4.3321,-4.3368,-4.3419,-4.3377,-4.339,-4.3362,-4.3407,-4.3526,-4.3355,-4.3354,-4.3388,-4.3649,-4.3686,-4.3709,-4.3497,-4.3501,-4.3504,-4.3649,0,-4.3278,-4.3375,-4.3341,-4.344,-4.3481,-4.3421,-4.347,-4.3478,-4.3467,-4.35,-4.3487,-4.3525,-4.3464,-4.3472,-4.3514,-4.3503,-4.3578,-4.3491,-4.3542,-4.3544,-4.3544,-4.3733,-4.3772,-4.3909,-4.3667,-4.367,-4.3672,0,-4.3455,-4.3477,-4.358,-4.3578,-4.3593,-4.3638,-4.3663,-4.3695,-4.3703,-4.3691,-4.3707,-4.367,-4.3726,-4.3653,-4.373,-4.3672,-4.3691,-4.3689,-4.3693,-4.3698,-4.3617,-4.3745,-4.3952,-4.3974,-4.3701,-4.3699,-4.3697,0,-4.3597,-4.3652,-4.3721,-4.3729,-4.3728,-4.3761,-4.3762,-4.3766,-4.3786,-4.3807,-4.382,-4.3847,-4.3863,-4.3885,-4.3857,-4.3806,-4.3939,-4.3863,-4.3932,-4.3933,-4.3964,-4.3963,-4.4179,-4.3973,-4.3973,-4.3973,-4.3972,0,-4.3759,-4.3824,-4.3785,-4.3828,-4.39,-4.3861,-4.3934,-4.3928,-4.3932,-4.3973,-4.3922,-4.3962,-4.3921,-4.3957,-4.3935,-4.4004,-4.401,-4.4004,-4.3997,-4.4009,-4.4011,-4.4022,-4.4013,-4.3978,-4.3977,-4.3976,-4.3975,0,-4.393,-4.3906,-4.3978,-4.3971,-4.3971,-4.4025,-4.4019,-4.4058,-4.4043,-4.4096,-4.4106,-4.4083,-4.4123,-4.4097,-4.4137,-4.4122,-4.4212,-4.4192,-4.421,-4.4205,-4.4277,-4.4272,-4.451,-4.454,-4.4313,-4.4315,-4.4317,0,-4.4036,-4.4085,-4.4084,-4.4108,-4.4113,-4.4151,-4.4172,-4.4135,-4.4159,-4.4172,-4.4211,-4.4246,-4.4273,-4.434,-4.4327,-4.4358,-4.4339,-4.442,-4.4343,-4.4355,-4.4343,-4.4341,-4.4347,-4.4436,-4.4439,-4.4441,-4.4443,0,-4.4226,-4.4212,-4.4243,-4.4271,-4.4297,-4.4317,-4.4332,-4.4355,-4.4319,-4.4347,-4.4388,-4.4409,-4.445,-4.4487,-4.4513,-4.4514,-4.4474,-4.4467,-4.4485,-4.4499,-4.4509,-4.4507,-4.4255,-4.4462,-4.446,-4.4459,-4.4458,-4.4457,-4.4369,-4.4411,-4.4417,-4.4454,-4.4462,-4.4479,-4.4516,-4.4506,-4.4539,-4.4571,-4.4547,-4.4596,-4.4603,-4.4634,-4.4641,-4.4679,-4.4646,-4.4671,-4.4678,-4.4686,-4.4697,-4.4501,-4.4683,-4.4682,-4.4682,-4.4681,-4.4681,0,-4.4559,-4.456,-4.4594,-4.4619,-4.4648,-4.4607,-4.4622,-4.465,-4.4694,-4.4704,-4.4732,-4.4779,-4.4815,-4.4805,-4.4837,-4.487,-4.4852,-4.488,-4.4878,-4.488,-4.4723,-4.4706,-4.4894,-4.4894,-4.4894,-4.4894,-4.4894,-4.4894,-4.4661,-4.473,-4.4717,-4.4791,-4.4791,-4.4839,-4.4852,-4.4867,-4.4875,-4.4931,-4.496,-4.4954,-4.4957,-4.4989,-4.502,-4.5016,-4.5031,-4.5066,-4.5056,-4.4911,-4.489,-4.487,-4.4853,-4.5069,-4.507,-4.5209,-4.5211,-4.5212]},{"header":{"parameterUnit":"m.s-1","parameterCategory":1,"la1":30.2991,"la2":30.254,"lo1":-89.0895,"lo2":-89.0444,"dy":0.0017,"dx":0.0017,"nx":28,"ny":28,"refTime":"2023-11-16T09:00:00:Z","depth":0,"parameterNumber":3,"parameterNumberName":"V-component_of_WINDS"},"data":[0,0,0,0,0,0,0,0,0,0,0,0,0,0,0,0,0,0,0,0,0,0,0,0,0,0,0,0,0,0,0,0,0,0,0,0,0,0,0,0,0,0,0,0,0,0,0,0,0,0,0,0,0,0,0,0,0,0,-2.9429,-2.9429,0,-2.9462,-2.9463,-2.9463,-2.9425,-2.9424,-2.9422,-2.9421,-2.9453,-2.9455,-2.9457,0,0,0,0,0,0,0,0,0,0,0,0,0,-2.933,-2.9332,-2.9429,-2.9429,-2.943,-2.9462,-2.9463,-2.9463,-2.9425,-2.9424,-2.9422,-2.942,-2.9452,-2.9455,-2.9458,0,0,0,0,0,0,0,0,0,0,0,0,0,-2.9369,-2.9333,-2.9429,-2.9415,-2.9414,-2.9462,-2.9463,-2.9463,-2.9426,-2.9424,-2.9421,-2.942,-2.9451,-2.9455,-2.9458,-2.9521,0,0,-2.9468,-2.9469,0,0,0,0,0,0,0,0,-2.9367,-2.9373,-2.9417,-2.9416,-2.9415,-2.9437,-2.9439,-2.9482,-2.9426,-2.9421,-2.9421,-2.9418,-2.9449,-2.9453,-2.9464,-2.9522,-2.9523,-2.9468,-2.947,-2.9471,-2.9472,0,0,0,0,0,0,0,-2.9364,-2.9371,-2.9442,-2.9417,-2.9416,-2.9406,-2.9409,-2.9447,-2.9447,-2.9422,-2.9419,-2.9423,-2.9449,-2.946,-2.9464,-2.9524,-2.9468,-2.9471,-2.9473,-2.9474,-2.9635,-2.9637,0,0,0,0,0,0,-2.9364,-2.9369,-2.9441,-2.9443,-2.9385,-2.941,-2.9413,-2.9432,-2.9446,-2.9446,-2.9425,-2.9422,-2.9456,-2.946,-2.9465,-2.954,-2.9471,-2.9475,-2.9476,-2.9633,-2.9635,-2.9638,0,0,0,0,0,0,-2.9362,-2.937,-2.944,-2.9405,-2.9413,-2.9414,-2.9435,-2.9434,-2.9446,-2.9449,-2.9449,-2.9438,-2.9454,-2.946,-2.9507,-2.954,-2.9476,-2.9479,-2.963,-2.9634,-2.9637,-2.969,0,0,0,0,0,0,-2.9359,-2.937,-2.9395,-2.9406,-2.9415,-2.9482,-2.9437,-2.9436,-2.9452,-2.9448,-2.9461,-2.9461,-2.9453,-2.9502,-2.951,-2.9544,-2.9482,-2.9627,-2.9632,-2.9636,-2.9685,-2.9695,-2.9703,0,0,0,0,0,-2.9356,-2.9408,-2.9396,-2.9405,-2.9446,-2.9484,-2.9489,-2.948,-2.9455,-2.9479,-2.9481,-2.946,-2.9535,-2.9508,-2.9516,-2.9551,-2.9625,-2.963,-2.9635,-2.9681,-2.9693,-2.9702,0,0,0,0,0,0,-2.9399,-2.9409,-2.9396,-2.9454,-2.9469,-2.9478,-2.9509,-2.9493,-2.9515,-2.951,-2.9496,-2.9499,-2.9549,-2.9554,-2.9524,-2.9612,-2.9576,-2.9583,-2.9607,-2.9619,-2.9627,-2.9626,-2.9484,0,0,0,0,0,-2.9416,-2.9447,-2.9453,-2.9503,-2.9511,-2.9509,-2.9525,-2.9516,-2.9531,-2.9537,-2.9542,-2.9556,-2.9582,-2.96,-2.9625,-2.9685,-2.9687,-2.9713,-2.9721,-2.9729,-2.9736,-2.9768,-2.9779,-2.9655,-2.9655,-2.9655,0,0,-2.945,-2.9459,-2.9479,-2.9512,-2.9523,-2.9554,-2.9514,-2.9549,-2.9572,-2.9542,-2.9587,-2.9591,-2.9605,-2.9659,-2.9683,-2.9665,-2.977,-2.9735,-2.9741,-2.9744,-2.9774,-2.9786,-2.9797,-2.9659,-2.9658,-2.9657,0,0,-2.9529,-2.9539,-2.9582,-2.9593,-2.961,-2.9607,-2.9618,-2.9629,-2.9631,-2.9676,-2.9653,-2.968,-2.9726,-2.9737,-2.9749,-2.9831,-2.9813,-2.9839,-2.9886,-2.9918,-2.9927,-2.9936,-2.9966,-2.9977,-2.9846,-2.9846,-2.9846,0,-2.957,-2.9617,-2.9606,-2.9643,-2.9658,-2.9631,-2.9675,-2.9686,-2.9709,-2.972,-2.9699,-2.9756,-2.9764,-2.982,-2.984,-2.985,-2.9861,-2.9839,-2.9927,-2.9936,-2.9943,-2.9972,-2.9983,-2.9849,-2.9849,-2.9848,-2.9848,0,-2.9667,-2.97,-2.9732,-2.9757,-2.9775,-2.9814,-2.9808,-2.9828,-2.9817,-2.9817,-2.9862,-2.9871,-2.9897,-2.9909,-2.9899,-2.9963,-2.9952,-2.9929,-2.9893,-2.9959,-2.9985,-2.9996,-2.9854,-2.9852,-2.9851,-2.9851,0,0,-2.9776,-2.9793,-2.9805,-2.9816,-2.9831,-2.9856,-2.9894,-2.992,-2.9937,-2.9953,-2.9985,-3.0024,-3.0003,-3.0016,-3.0007,-3.0034,-3.0099,-3.0008,-3.0008,-3.0026,-3.0172,-3.019,-3.0203,-3.0086,-3.0088,-3.009,-3.0171,0,-2.9857,-2.9924,-2.9914,-2.9979,-3.0009,-2.9983,-3.0016,-3.0029,-3.0029,-3.0054,-3.0053,-3.0082,-3.0051,-3.0059,-3.0085,-3.0086,-3.0129,-3.008,-3.0116,-3.0117,-3.0115,-3.0217,-3.0236,-3.0312,-3.0181,-3.0183,-3.0184,0,-2.996,-2.9981,-3.0049,-3.0059,-3.0071,-3.0102,-3.0124,-3.0148,-3.0161,-3.0159,-3.0174,-3.0159,-3.0196,-3.0158,-3.0208,-3.0175,-3.0189,-3.0191,-3.0194,-3.0199,-3.0156,-3.0225,-3.0336,-3.0348,-3.02,-3.0199,-3.0198,0,-3.0035,-3.0079,-3.0126,-3.0135,-3.0148,-3.017,-3.0176,-3.0187,-3.0203,-3.0222,-3.0233,-3.0255,-3.0268,-3.0286,-3.0277,-3.025,-3.033,-3.029,-3.0329,-3.033,-3.0349,-3.0348,-3.0466,-3.0355,-3.0355,-3.0355,-3.0355,0,-3.0127,-3.017,-3.016,-3.0189,-3.0235,-3.0223,-3.0269,-3.0272,-3.0281,-3.031,-3.0288,-3.0315,-3.0301,-3.0326,-3.0319,-3.0363,-3.0368,-3.0367,-3.0366,-3.0371,-3.0371,-3.0381,-3.0376,-3.0358,-3.0357,-3.0357,-3.0356,0,-3.0219,-3.0215,-3.0264,-3.0272,-3.0274,-3.0309,-3.0315,-3.0341,-3.0339,-3.0375,-3.0383,-3.0379,-3.0408,-3.04,-3.0431,-3.0426,-3.0482,-3.0472,-3.0478,-3.0476,-3.0516,-3.0513,-3.0645,-3.0662,-3.054,-3.0541,-3.0542,0,-3.0279,-3.0312,-3.0323,-3.0341,-3.0349,-3.0378,-3.0394,-3.0381,-3.0399,-3.0416,-3.044,-3.0467,-3.0488,-3.0535,-3.0535,-3.0558,-3.055,-3.0594,-3.0553,-3.0558,-3.0552,-3.0551,-3.0555,-3.0603,-3.0605,-3.0606,-3.0607,0,-3.0387,-3.0382,-3.0407,-3.0431,-3.0451,-3.0469,-3.0485,-3.05,-3.0489,-3.051,-3.0539,-3.0556,-3.0587,-3.0614,-3.0635,-3.064,-3.0622,-3.0619,-3.063,-3.0637,-3.0639,-3.064,-3.0502,-3.0617,-3.0616,-3.0615,-3.0615,-3.0614,-3.0466,-3.0494,-3.0506,-3.0534,-3.0544,-3.056,-3.0585,-3.0586,-3.061,-3.0636,-3.0626,-3.066,-3.0671,-3.0698,-3.0706,-3.0731,-3.0714,-3.0729,-3.0733,-3.0738,-3.0744,-3.0634,-3.0735,-3.0734,-3.0734,-3.0734,-3.0734,0,-3.0573,-3.058,-3.0606,-3.0629,-3.065,-3.0631,-3.0647,-3.0666,-3.0697,-3.0709,-3.073,-3.0763,-3.0789,-3.079,-3.0814,-3.0834,-3.0826,-3.0841,-3.084,-3.0842,-3.0757,-3.0746,-3.0847,-3.0847,-3.0847,-3.0847,-3.0847,-3.0847,-3.0632,-3.0678,-3.0675,-3.0726,-3.0731,-3.0765,-3.0776,-3.0789,-3.0799,-3.0838,-3.0859,-3.086,-3.0867,-3.0891,-3.0913,-3.0913,-3.0923,-3.0942,-3.0938,-3.0859,-3.0848,-3.0837,-3.0827,-3.0944,-3.0944,-3.1022,-3.1022,-3.1023]}]]